User: anonymous   Login
Location: Unspecified
(0.0000°N, 0.0000°E)
Time: 02:50:05
(UTC+00:00)
Language:

APRIZESAT 2 (LATINSAT D) - Orbit

View from above orbital plane
View from above orbital plane
View from above satellite
View from above satellite

Ground track
Ground track

The orbit data is extracted from the following two-line orbital elements,

1 28366U 04025A   17147.58642664 +.00000024 +00000-0 +21417-4 0  9992
2 28366 098.3387 062.1794 0108902 111.6317 249.6511 14.36601896676634
Epoch (UTC): 27 May 2017 14:04:27
Eccentricity: 0.0108902
inclination: 98.3387°
perigee height: 692 km
apogee height: 847 km
right ascension of ascending node: 62.1794°
argument of perigee: 111.6317°
revolutions per day: 14.36601896
mean anomaly at epoch: 249.6511°
orbit number at epoch: 67663

The dashed part of the orbit path shows where the satellite is in the earth's shadow,  

DLR